Location: Dzierzno
(50.6159°N, 19.2852°E)
Time: 02:49:55
(UTC+00:00)

Cosmos 2058 - Pass Details

Date: 18 November 2025
Orbit: 529 x 541 km, 82.5° (Epoch: 04 December)

Event Time Altitude Azimuth Distance (km) Brightness Sun altitude
Rises 15:51:01 0° 357° (N) 2,706 6.2 -9.2°
Reaches altitude 10° 15:53:22 10° 7° (N) 1,812 5.2 -9.6°
Maximum altitude 15:56:58 32° 72° (ENE) 953 3.5 -10.1°
Drops below altitude 10° 16:00:32 10° 136° (SE) 1,804 5.2 -10.6°
Sets 16:02:51 0° 147° (SSE) 2,693 6.2 -11.0°
